Погода в Ла Фортуна

Коста-Рика     10°28′35″N   84°37′52″W
темп.,
°C
ветер,
м/с
пор.,
м/с
влажн.,
%
обл.,
%
осадки,
мм/ч
давл.,
гПа
погр.,
м
9 августа, вт
вт900:00+20вюв239646 0.8 1013102
03:00+20вюв129627 0.0 101148
06:00+20вюв119739 0.1 101353
09:00+24всв348851 0.3 1014571
12:00+26всв357874 1.8 1012823
15:00+25всв458163 1.9 1010788
18:00+22в259593 3.9 1012223
21:00+21вюв259856 0.6 1014236
10 августа, ср
ср1000:00+20в249892 1.0 1014201
03:00+20в2499100 0.5 1012193
06:00+21в2498100 0.8 1013241
09:00+22всв2597100 0.2 1014322
12:00+24всв3588100 2.3 1013614
15:00+22всв3496100 4.4 1012365
18:00+21всв2499100 6.3 1013259
21:00+21в139894 0.8 1015181
11 августа, чт
чт1100:00+20вюв019780 1.1 101454
03:00+20вюв019771 0.4 101347
06:00+20всв129894 1.5 1013128
09:00+21всв2498100 0.4 1014300
12:00+21всв3598100 0.9 1014377
15:00+22всв3696100 1.5 1012473
18:00+20в2597100 2.8 1013271
21:00+20вюв2496100 0.3 1015134
12 августа, пт
пт1200:00+20юв1295100 1.1 101460
03:00+20в0195100 0.2 101340
06:00+20всв1196100 1.7 101435
09:00+21в0193100 0.3 101690
12:00+21сз0192100 1.1 101593
15:00+21св1194100 1.1 1013161
18:00+19вюв1198100 2.2 101441
21:00+19всв1198100 0.9 101649
13 августа, сб
сб1300:00+20юв1196100 0.9 101532
03:00+19юв1195100 0.0 101326
06:00+19юв1195100 0.0 101431
09:00+22всв2288100 0.0 1015348
12:00+24св118287 1.2 1014653
15:00+23сз1189100 3.8 1012321
18:00+21з119788 9.3 101327
21:00+20ююв1196100 2.9 101520